Weather History for Bar Harbor, ME

Change the Weather History Date:

Sunday, January 20, 2013

  Actual Average Record
Temperature  
Mean Temperature 35 °F -  
Max Temperature 46 °F 30 °F 52 °F (1949)
Min Temperature 23 °F 12 °F -10 °F (1971)
Degree Days  
Heating Degree Days 30    
Moisture  
Dew Point 28 °F    
Average Humidity 72    
Maximum Humidity 100    
Minimum Humidity 38    
Precipitation  
Precipitation 0.00 in - - ()
Sea Level Pressure  
Sea Level Pressure 29.62 in    
Wind  
Wind Speed 7 mph (SW)    
Max Wind Speed 23 mph    
Max Gust Speed 34 mph    
Visibility 9 miles    
Events      
Averages and records for this station are not official NWS values.
T = Trace of Precipitation, MM = Missing Value Source: NWS Daily Summary

Daily Weather History Graph

Daily Weather History Graph

Search for Another Location

Airport:

Trip Planner

Search our weather history database for the weather conditions in past years. The results will help you decide how hot, cold, wet, or windy it might be!

Date:

Astronomy

Jan. 20, 2013 Rise Set
Actual Time 7:03 AM EST 4:26 PM EST
Civil Twilight 6:31 AM EST 4:58 PM EST
Nautical Twilight 5:55 AM EST 5:34 PM EST
Astronomical Twilight 5:20 AM EST 6:08 PM EST
Moon 11:26 AM EST (1/20) 1:30 AM EST (1/20)
Length of Visible Light 10h 27m
Length of Day
9h 23m
Waxing Gibbous, 66% of the Moon is Illuminated
Jan 20
Waxing Gibbous
Jan 26
Full
Feb 3
Last Quarter
Feb 10
New
Feb 17
First Quarter

Hourly Weather History & Observations

Time (EST) Temp. Windchill Dew Point Humidity Pressure Visibility Wind Dir Wind Speed Gust Speed Precip Events Conditions
12:15 AM 30.2 °F - 28.4 °F 93% 29.91 in 10.0 mi Calm Calm - N/A   Overcast
12:35 AM 30.2 °F - 28.4 °F 93% 29.89 in 10.0 mi Calm Calm - N/A   Overcast
12:55 AM 30.2 °F - 28.4 °F 93% 29.88 in 10.0 mi Calm Calm - N/A   Overcast
1:15 AM 30.2 °F - 30.2 °F 100% 29.88 in 10.0 mi Calm Calm - N/A   Overcast
1:35 AM 32.0 °F 28.7 °F 30.2 °F 93% 29.88 in 10.0 mi East 3.5 mph - N/A   Overcast
1:55 AM 33.8 °F 27.7 °F 33.8 °F 100% 29.87 in 10.0 mi East 6.9 mph - N/A   Overcast
2:15 AM 35.6 °F 32.8 °F 33.8 °F 93% 29.87 in 10.0 mi East 3.5 mph - N/A   Overcast
2:35 AM 35.6 °F 31.7 °F 33.8 °F 93% 29.85 in 10.0 mi East 4.6 mph - N/A   Overcast
3:15 AM 35.6 °F 29.9 °F 33.8 °F 93% 29.81 in 10.0 mi East 6.9 mph - N/A   Overcast
3:55 AM 37.4 °F 32.8 °F 35.6 °F 93% 29.77 in 10.0 mi ESE 5.8 mph - N/A   Scattered Clouds
4:15 AM 37.4 °F 33.8 °F 35.6 °F 93% 29.76 in 10.0 mi East 4.6 mph - N/A   Mostly Cloudy
4:35 AM 35.6 °F 32.8 °F 35.6 °F 100% 29.74 in 10.0 mi ESE 3.5 mph - N/A   Overcast
4:55 AM 35.6 °F 32.8 °F 35.6 °F 100% 29.73 in 10.0 mi SE 3.5 mph - N/A   Mostly Cloudy
5:15 AM 35.6 °F - 35.6 °F 100% 29.72 in 6.0 mi Calm Calm - N/A   Scattered Clouds
5:35 AM 33.8 °F - 33.8 °F 100% 29.71 in 3.0 mi Calm Calm - N/A   Partly Cloudy
5:55 AM 33.8 °F - 32.0 °F 93% 29.70 in 5.0 mi Calm Calm - N/A   Clear
6:15 AM 33.8 °F - 32.0 °F 93% 29.67 in 5.0 mi Calm Calm - N/A   Mostly Cloudy
6:35 AM 33.8 °F - 33.8 °F 100% 29.66 in 5.0 mi Calm Calm - N/A   Overcast
6:55 AM 33.8 °F - 32.0 °F 93% 29.65 in 3.0 mi Calm Calm - N/A   Overcast
7:15 AM 33.8 °F - 33.8 °F 100% 29.62 in 1.2 mi Calm Calm - N/A   Overcast
7:35 AM 35.6 °F 28.0 °F 33.8 °F 93% 29.60 in 5.0 mi South 10.4 mph - N/A   Mostly Cloudy
7:55 AM 39.2 °F 32.5 °F 39.2 °F 100% 29.60 in 7.0 mi South 10.4 mph - N/A   Mostly Cloudy
8:35 AM 42.8 °F 34.3 °F 39.2 °F 87% 29.55 in 8.0 mi South 19.6 mph - N/A   Overcast
9:15 AM 42.8 °F 34.0 °F 39.2 °F 87% 29.53 in 8.0 mi South 20.7 mph - N/A   Overcast
9:35 AM 44.6 °F 36.6 °F 39.2 °F 81% 29.52 in 8.0 mi SSW 19.6 mph 29.9 mph N/A   Overcast
10:15 AM 44.6 °F 36.6 °F 39.2 °F 81% 29.50 in 9.0 mi SSW 19.6 mph 25.3 mph N/A   Overcast
10:35 AM 44.6 °F 37.2 °F 39.2 °F 81% 29.48 in 8.0 mi SSW 17.3 mph 26.5 mph N/A   Overcast
10:55 AM 44.6 °F 36.6 °F 39.2 °F 81% 29.47 in 9.0 mi SSW 19.6 mph 34.5 mph N/A   Overcast
11:15 AM 46.4 °F 38.5 °F 39.2 °F 76% 29.45 in 9.0 mi SSW 21.9 mph 31.1 mph N/A   Overcast
11:35 AM 46.4 °F 38.3 °F 39.2 °F 76% 29.43 in 9.0 mi SSW 23.0 mph 31.1 mph N/A   Mostly Cloudy
11:55 AM 46.4 °F 39.2 °F 37.4 °F 71% 29.43 in 10.0 mi SSW 18.4 mph 27.6 mph N/A   Scattered Clouds
12:15 PM 46.4 °F 39.2 °F 37.4 °F 71% 29.42 in 10.0 mi SW 18.4 mph 26.5 mph N/A   Clear
12:35 PM 46.4 °F 39.5 °F 35.6 °F 66% 29.42 in 10.0 mi SW 17.3 mph 29.9 mph N/A   Clear
1:15 PM 46.4 °F 39.5 °F 35.6 °F 66% 29.42 in 10.0 mi SW 17.3 mph 29.9 mph N/A   Clear
1:35 PM 46.4 °F 39.8 °F 35.6 °F 66% 29.42 in 10.0 mi SW 16.1 mph 27.6 mph N/A   Clear
1:55 PM 46.4 °F 39.8 °F 35.6 °F 66% 29.43 in 10.0 mi SW 16.1 mph 23.0 mph N/A   Partly Cloudy
2:15 PM 46.4 °F 41.5 °F 35.6 °F 66% 29.43 in 10.0 mi SW 10.4 mph 19.6 mph N/A   Mostly Cloudy
2:35 PM 46.4 °F 42.4 °F 35.6 °F 66% 29.44 in 10.0 mi WSW 8.1 mph - N/A   Overcast
2:55 PM 46.4 °F 41.5 °F 33.8 °F 62% 29.44 in 10.0 mi SSW 10.4 mph 16.1 mph N/A   Overcast
3:15 PM 44.6 °F 39.7 °F 32.0 °F 61% 29.44 in 10.0 mi SW 9.2 mph - N/A   Scattered Clouds
3:35 PM 44.6 °F 38.1 °F 26.6 °F 49% 29.45 in 10.0 mi WSW 13.8 mph 26.5 mph N/A   Clear
3:55 PM 44.6 °F 39.2 °F 26.6 °F 49% 29.46 in 10.0 mi SW 10.4 mph 19.6 mph N/A   Clear
4:15 PM 44.6 °F 38.8 °F 26.6 °F 49% 29.48 in 10.0 mi WSW 11.5 mph 17.3 mph N/A   Partly Cloudy
4:35 PM 42.8 °F 38.6 °F 26.6 °F 53% 29.49 in 10.0 mi West 6.9 mph - N/A   Mostly Cloudy
4:55 PM 42.8 °F 39.3 °F 28.4 °F 57% 29.51 in 10.0 mi West 5.8 mph - N/A   Overcast
5:15 PM 41.0 °F 35.2 °F 28.4 °F 61% 29.52 in 10.0 mi West 9.2 mph - N/A   Partly Cloudy
5:35 PM 39.2 °F 34.2 °F 26.6 °F 61% 29.53 in 10.0 mi West 6.9 mph - N/A   Clear
5:55 PM 39.2 °F 37.0 °F 26.6 °F 61% 29.54 in 10.0 mi West 3.5 mph - N/A   Clear
6:15 PM 39.2 °F 33.6 °F 26.6 °F 61% 29.55 in 10.0 mi WSW 8.1 mph - N/A   Clear
6:35 PM 39.2 °F 32.0 °F 21.2 °F 49% 29.56 in 10.0 mi West 11.5 mph 20.7 mph N/A   Clear
6:55 PM 39.2 °F 32.5 °F 19.4 °F 45% 29.58 in 10.0 mi West 10.4 mph 21.9 mph N/A   Clear
7:15 PM 37.4 °F 28.5 °F 15.8 °F 41% 29.59 in 10.0 mi West 15.0 mph 25.3 mph N/A   Clear
7:35 PM 37.4 °F 27.5 °F 15.8 °F 41% 29.60 in 10.0 mi West 18.4 mph 31.1 mph N/A   Clear
7:55 PM 35.6 °F 26.2 °F 15.8 °F 44% 29.61 in 10.0 mi West 15.0 mph 26.5 mph N/A   Clear
8:15 PM 35.6 °F 27.1 °F 15.8 °F 44% 29.62 in 10.0 mi West 12.7 mph 20.7 mph N/A   Clear
8:55 PM 33.8 °F 25.3 °F 10.4 °F 38% 29.65 in 10.0 mi West 11.5 mph 23.0 mph N/A   Clear
9:15 PM 33.8 °F 25.3 °F 10.4 °F 38% 29.67 in 10.0 mi WNW 11.5 mph 19.6 mph N/A   Clear
9:35 PM 32.0 °F 22.1 °F 14.0 °F 48% 29.68 in 10.0 mi WNW 13.8 mph 21.9 mph N/A   Clear
9:55 PM 30.2 °F 20.8 °F 17.6 °F 60% 29.70 in 10.0 mi NW 11.5 mph 21.9 mph N/A   Clear
10:15 PM 28.4 °F 17.5 °F 12.2 °F 51% 29.72 in 10.0 mi WNW 13.8 mph 33.4 mph N/A   Clear
10:35 PM 26.6 °F 14.3 °F 10.4 °F 51% 29.74 in 10.0 mi WNW 16.1 mph 25.3 mph N/A   Clear
10:55 PM 26.6 °F 14.3 °F 8.6 °F 47% 29.75 in 10.0 mi WNW 16.1 mph 29.9 mph N/A   Clear
11:15 PM 26.6 °F 16.2 °F 6.8 °F 43% 29.76 in 10.0 mi NW 11.5 mph 31.1 mph N/A   Clear
11:35 PM 24.8 °F 12.4 °F 6.8 °F 46% 29.76 in 10.0 mi WNW 15.0 mph 28.8 mph N/A   Clear
11:55 PM 23.0 °F 11.1 °F 6.8 °F 50% 29.78 in 10.0 mi WNW 12.7 mph 28.8 mph N/A   Clear